Location: Beetenbrück
(52.8113°N, 9.5946°E)
Time: 17:29:53
(UTC+00:00)

ARIANE 5 R/B - Pass Details

Date: 14 April 2026
Orbit: 614 x 648 km, 98.0° (Epoch: 14 September)

Event Time Altitude Azimuth Distance (km) Brightness Sun altitude
Exits shadow 22:04:06 52° 50° (NE) 777 3.0 -25.3°
Drops below altitude 10° 22:07:59 10° 353° (N) 2,003 6.1 -25.6°
Sets 22:10:13 0° 349° (N) 2,918 7.3 -25.7°
